Regional Weather Roundup
Issued by NWS

Home | Current Version | Previous Version | Graphics & Text | Print | Product List | Glossary On
Versions: 1 2 3 4 5 6 7 8 9 10 11 12 13 14 15 16 17 18 19 20 21 22 23 24 25 26 27 28 29 30 31 32 33 34 35 36 37 38 39 40 41 42 43 44 45 46 47 48 49 50
000
ASUS43 KLMK 161302
RWRKY
KENTUCKY REGIONAL WEATHER ROUNDUP
NATIONAL WEATHER SERVICE LOUISVILLE KY
900 AM EDT WED AUG 16 2017

NOTE "FAIR" INDICATES FEW OR NO CLOUDS BELOW 12,000 FEET
WITH NO SIGNIFICANT WEATHER AND/OR OBSTRUCTIONS TO VISIBILITY.

KYZ001>023-026-027-061>063-070>075-161400-
WESTERN AND SOUTH CENTRAL KENTUCKY

CITY           SKY/WX    TMP DP  RH WIND       PRES   REMARKS
PADUCAH        CLOUDY    76  73  91 S8        29.99R
HENDERSON      SUNNY     74  73  97 S5        30.01R
OWENSBORO      MOSUNNY   75  72  90 S6        30.02R
HOPKINSVILLE   MOSUNNY   76  73  88 S6        30.03R
BOWLING GREEN  PTSUNNY   78  72  81 S8        30.04R
GLASGOW        MOSUNNY   76  72  87 CALM      30.05R
$$

KYZ024-025-028>034-038-045-046-053-161400-
NORTH CENTRAL KENTUCKY

CITY           SKY/WX    TMP DP  RH WIND       PRES   REMARKS
LOUISVILLE/SDF PTSUNNY   78  72  81 CALM      30.03R HAZE
LOUISVILLE/LOU SUNNY     76  74  93 S5        30.04R FOG
FORT KNOX      LGT RAIN  74  73  96 CALM      30.03R
$$

KYZ035>037-039>044-047>052-055>060-089>105-161400-
NORTHEAST KENTUCKY

CITY           SKY/WX    TMP DP  RH WIND       PRES   REMARKS
LEXINGTON      CLOUDY    74  71  91 SE3       30.07R
COVINGTON      MOSUNNY   76  71  85 CALM      30.04S
FRANKFORT      PTSUNNY   73  70  90 SE3       30.04S FOG
$$

KYZ054-064>069-076>088-106>120-161400-
SOUTHEAST KENTUCKY

CITY           SKY/WX    TMP DP  RH WIND       PRES   REMARKS
JACKSON        FOG       71  70  96 CALM      30.10R VSB 1/4
LONDON         CLOUDY    70  69  97 CALM      30.09R
SOMERSET       NOT AVBL
MIDDLESBORO    CLOUDY    70  70 100 CALM      30.11S
MONTICELLO     CLOUDY    73  72  96 W8        30.10R
$$





USA.gov is the U.S. government's official web portal to all federal, state and local government web resources and services.